tititudorancea.com
Station Historical Data
Daily Summary for March 3, 2019 Units:  Metric    English   Both
« Previous Day
Next Day »
Daily Weekly Monthly Yearly Custom
  High: Low: Average:
Temperature: -17.8 °C 16.2 °C 25.8 °C
Dew Point: -17.8 °C 6.5 °C 9.7 °C
Humidity: Humidity % 19 % 40 %
Wind Speed: 0 km/h 1.9 km/h 12.1 km/h
Wind Gust: 0 km/h - -
Wind:- - SSE
Pressure: 0 hPa 1012.8 hPa -
Precipitation: 0 mm    
Historical Graphs
 
 
Ararat weather Find more about Weather in Ararat, AU


 



 


Tabular Data for March 3, 2019
Time Temperature Dew Point Pressure Wind Wind Speed Wind Gust Humidity Rainfall Rate (Hourly)
-17.8 °C -17.8 °C 0 hPa Calm     Humidity % 0 mm
00:04 24.3 °C 6.9 °C 1014.8 hPa NNE 5.6 km/h 3.9 km/h 33 % 0 mm
00:09 24.3 °C 6.9 °C 1014.8 hPa NNE 5.6 km/h 3.5 km/h 33 % 0 mm
00:14 24.5 °C 7.2 °C 1014.8 hPa NNE 5.6 km/h 4.8 km/h 33 % 0 mm
00:19 24.6 °C 7.2 °C 1014.8 hPa NNE 6.4 km/h 4.7 km/h 33 % 0 mm
00:24 24.8 °C 7 °C 1014.4 hPa NNE 5.6 km/h 2.3 km/h 32 % 0 mm
00:29 24.9 °C 7.1 °C 1014.8 hPa NNE 5.6 km/h 2.3 km/h 32 % 0 mm
00:34 24.9 °C 7.1 °C 1014.4 hPa NNE 3.7 km/h 3.7 km/h 32 % 0 mm
00:39 24.8 °C 6.9 °C 1014.4 hPa NNE 3.7 km/h 3.2 km/h 32 % 0 mm
00:44 24.7 °C 7.3 °C 1014.4 hPa NNE 5.6 km/h 4.3 km/h 33 % 0 mm
00:49 24.7 °C 7.3 °C 1014.4 hPa NNE 6.4 km/h 5 km/h 33 % 0 mm
00:54 24.8 °C 7.4 °C 1014.4 hPa NNE 7.4 km/h 5.6 km/h 33 % 0 mm
00:59 24.8 °C 7.4 °C 1014.4 hPa NNE 5.6 km/h 3.1 km/h 33 % 0 mm
01:04 24.7 °C 7.3 °C 1014.4 hPa NNE 5.6 km/h 3.1 km/h 33 % 0 mm
01:09 24.8 °C 7.4 °C 1014.8 hPa NNE 5.6 km/h 4.5 km/h 33 % 0 mm
01:14 24.9 °C 7.5 °C 1014.4 hPa NNE 5.6 km/h 3.2 km/h 33 % 0 mm
01:19 24.8 °C 7.4 °C 1014.4 hPa NNE 1.9 km/h 1.8 km/h 33 % 0 mm
01:24 24.9 °C 7.5 °C 1014.4 hPa NNE 5.6 km/h 3.1 km/h 33 % 0 mm
01:29 25.1 °C 7.7 °C 1014.4 hPa NNE 5.6 km/h 2.1 km/h 33 % 0 mm
01:34 25.1 °C 7.7 °C 1014.4 hPa NNE 5.6 km/h 2.6 km/h 33 % 0 mm
01:39 24.9 °C 7.6 °C 1014.4 hPa NNE 3.7 km/h 2.6 km/h 33 % 0 mm
01:44 24.8 °C 7.4 °C 1014.4 hPa NNE 6.4 km/h 3.5 km/h 33 % 0 mm
01:49 24.7 °C 7.3 °C 1014.1 hPa NNE 5.6 km/h 3.1 km/h 33 % 0 mm
01:54 24.7 °C 7.3 °C 1014.4 hPa NNE 5.6 km/h 3.1 km/h 33 % 0 mm
01:59 24.7 °C 7.3 °C 1014.4 hPa NNE 5.6 km/h 3.4 km/h 33 % 0 mm
02:04 24.6 °C 7.7 °C 1014.1 hPa NNE 5.6 km/h 3.7 km/h 34 % 0 mm
02:09 24.6 °C 7.7 °C 1014.1 hPa NNE 5.6 km/h 3.7 km/h 34 % 0 mm
02:14 24.6 °C 7.7 °C 1014.1 hPa NNE 5.6 km/h 2.7 km/h 34 % 0 mm
02:19 24.4 °C 7.6 °C 1014.1 hPa NNE 5.6 km/h 3.7 km/h 34 % 0 mm
02:24 24.4 °C 7.6 °C 1014.1 hPa NNE 3.7 km/h 3.2 km/h 34 % 0 mm
02:29 24.4 °C 7.5 °C 1014.1 hPa NNE 5.6 km/h 2.7 km/h 34 % 0 mm
02:34 24.2 °C 7.8 °C 1014.1 hPa NNE 5.6 km/h 3.4 km/h 35 % 0 mm
02:39 24 °C 7.6 °C 1014.1 hPa NNE 5.6 km/h 2.6 km/h 35 % 0 mm
02:44 23.8 °C 7.8 °C 1014.1 hPa NNE 5.6 km/h 4.2 km/h 36 % 0 mm
02:49 23.6 °C 7.7 °C 1014.1 hPa NNE 5.6 km/h 4.2 km/h 36 % 0 mm
02:54 23.6 °C 7.7 °C 1014.1 hPa NNE 5.6 km/h 4 km/h 36 % 0 mm
02:59 23.5 °C 7.9 °C 1014.1 hPa NNE 5.6 km/h 2.4 km/h 37 % 0 mm
03:04 23.6 °C 8 °C 1014.1 hPa NNE 5.6 km/h 2.4 km/h 37 % 0 mm
03:09 23.7 °C 7.7 °C 1014.1 hPa NNE 4.8 km/h 2.3 km/h 36 % 0 mm
03:14 23.8 °C 7.8 °C 1014.1 hPa NNE 5.6 km/h 1.1 km/h 36 % 0 mm
03:19 24 °C 8 °C 1014.1 hPa NNE 5.6 km/h 2.9 km/h 36 % 0 mm
03:24 24.2 °C 8.2 °C 1014.1 hPa NNE 5.6 km/h 4.5 km/h 36 % 0 mm
03:29 24.6 °C 8.1 °C 1014.1 hPa NNE 7.4 km/h 4.3 km/h 35 % 0 mm
03:34 24.9 °C 7.9 °C 1014.1 hPa NNE 9.3 km/h 5.8 km/h 34 % 0 mm
03:39 25.1 °C 8.2 °C 1014.1 hPa NNE 5.6 km/h 3.9 km/h 34 % 0 mm
03:44 25.2 °C 7.7 °C 1014.1 hPa NNE 5.6 km/h 2.9 km/h 33 % 0 mm
03:49 25.1 °C 8.1 °C 1014.1 hPa NNE 5.6 km/h 2.9 km/h 34 % 0 mm
03:54 24.9 °C 7.9 °C 1014.1 hPa NNE 5.6 km/h 2.7 km/h 34 % 0 mm
03:59 24.7 °C 7.8 °C 1014.1 hPa NNE 5.6 km/h 1.6 km/h 34 % 0 mm
04:04 24.6 °C 8.1 °C 1014.1 hPa NNE 5.6 km/h 1.6 km/h 35 % 0 mm
04:09 24.4 °C 7.9 °C 1014.1 hPa NNE 3.7 km/h 2.3 km/h 35 % 0 mm
04:14 24.3 °C 7.9 °C 1014.1 hPa NNE 6.4 km/h 3.7 km/h 35 % 0 mm
04:19 24.4 °C 8 °C 1014.1 hPa NNE 5.6 km/h 3.2 km/h 35 % 0 mm
04:24 24.4 °C 8 °C 1014.1 hPa NNE 5.6 km/h 2.6 km/h 35 % 0 mm
04:29 24.4 °C 7.9 °C 1014.1 hPa NNE 5.6 km/h 3.1 km/h 35 % 0 mm
04:34 24.3 °C 8.3 °C 1014.1 hPa NNE 5.6 km/h 3.7 km/h 36 % 0 mm
04:39 24.3 °C 8.3 °C 1014.1 hPa NNE 5.6 km/h 3.9 km/h 36 % 0 mm
04:44 24.3 °C 8.2 °C 1014.1 hPa NNE 5.6 km/h 4.3 km/h 36 % 0 mm
04:49 24.2 °C 8.2 °C 1014.1 hPa NNE 5.6 km/h 2.3 km/h 36 % 0 mm
04:54 24 °C 8.4 °C 1014.1 hPa NNE 5.6 km/h 2.9 km/h 37 % 0 mm
04:59 23.8 °C 8.3 °C 1014.4 hPa NNE 3.7 km/h 1.8 km/h 37 % 0 mm
05:04 23.7 °C 8.2 °C 1014.4 hPa NNE 5.6 km/h 1.9 km/h 37 % 0 mm
05:09 23.5 °C 8.3 °C 1014.4 hPa NNE 3.7 km/h 2.4 km/h 38 % 0 mm
05:14 23.3 °C 8.2 °C 1014.4 hPa NNE 5.6 km/h 2.4 km/h 38 % 0 mm
05:19 23.3 °C 8.2 °C 1014.4 hPa NNE 5.6 km/h 3.7 km/h 38 % 0 mm
05:24 23.2 °C 8.1 °C 1014.4 hPa NNE 7.4 km/h 3.9 km/h 38 % 0 mm
05:29 23.2 °C 8.1 °C 1014.4 hPa NNE 5.6 km/h 3.5 km/h 38 % 0 mm
05:34 23.1 °C 8.4 °C 1014.4 hPa NNE 5.6 km/h 3.2 km/h 39 % 0 mm
05:39 23.1 °C 8.4 °C 1014.4 hPa NNE 5.6 km/h 3.2 km/h 39 % 0 mm
05:44 23.2 °C 8.1 °C 1014.4 hPa NNE 5.6 km/h 3.9 km/h 38 % 0 mm
05:49 23.1 °C 8 °C 1014.4 hPa NNE 5.6 km/h 3.7 km/h 38 % 0 mm
05:54 23.1 °C 8.4 °C 1014.4 hPa NNE 5.6 km/h 3.4 km/h 39 % 0 mm
05:59 23.1 °C 8.4 °C 1014.4 hPa NNE 5.6 km/h 3.5 km/h 39 % 0 mm
06:04 23.1 °C 8.3 °C 1014.4 hPa NNE 5.6 km/h 3.5 km/h 39 % 0 mm
06:09 23 °C 8.3 °C 1014.4 hPa NNE 5.6 km/h 4 km/h 39 % 0 mm
06:14 22.9 °C 8.2 °C 1014.4 hPa NNE 5.6 km/h 3.4 km/h 39 % 0 mm
06:19 22.9 °C 8.2 °C 1014.4 hPa NNE 5.6 km/h 3.2 km/h 39 % 0 mm
06:24 22.9 °C 8.2 °C 1014.4 hPa NNE 5.6 km/h 3.2 km/h 39 % 0 mm
06:29 22.9 °C 8.2 °C 1014.4 hPa NNE 3.7 km/h 2.7 km/h 39 % 0 mm
06:34 23 °C 8.3 °C 1014.8 hPa NNE 5.6 km/h 3.2 km/h 39 % 0 mm
06:39 23.1 °C 8.4 °C 1014.8 hPa NNE 3.7 km/h 3.2 km/h 39 % 0 mm
06:44 23.1 °C 8.3 °C 1014.4 hPa NNE 5.6 km/h 3.5 km/h 39 % 0 mm
06:49 23.1 °C 8.7 °C 1014.4 hPa NNE 6.4 km/h 6.3 km/h 40 % 0 mm
06:54 23.2 °C 8.5 °C 1014.4 hPa NNE 7.4 km/h 4.5 km/h 39 % 0 mm
06:59 23.3 °C 8.6 °C 1014.4 hPa NNE 6.4 km/h 3.9 km/h 39 % 0 mm
07:04 23.4 °C 8.7 °C 1014.4 hPa NNE 6.4 km/h 5.8 km/h 39 % 0 mm
07:09 23.7 °C 8.9 °C 1014.8 hPa NNE 8 km/h 6.9 km/h 39 % 0 mm
07:14 23.8 °C 8.6 °C 1014.8 hPa NNE 9.3 km/h 6.4 km/h 38 % 0 mm
07:19 23.9 °C 8.8 °C 1014.8 hPa NNE 9.3 km/h 7.6 km/h 38 % 0 mm
07:24 24.2 °C 8.9 °C 1015.1 hPa North 11.3 km/h 10.5 km/h 38 % 0 mm
07:29 24.4 °C 9.2 °C 1014.8 hPa North 5.6 km/h 4.5 km/h 38 % 0 mm
07:34 24.3 °C 9.1 °C 1015.1 hPa North 7.4 km/h 4.2 km/h 38 % 0 mm
07:39 24.2 °C 9 °C 1015.1 hPa North 7.4 km/h 4.5 km/h 38 % 0 mm
07:44 24.1 °C 9.3 °C 1015.1 hPa North 7.4 km/h 5 km/h 39 % 0 mm
07:49 24.1 °C 9.2 °C 1015.1 hPa North 9.3 km/h 6.6 km/h 39 % 0 mm
07:54 24.1 °C 9.2 °C 1015.1 hPa North 9.3 km/h 5 km/h 39 % 0 mm
07:59 24.2 °C 9.3 °C 1015.1 hPa North 9.7 km/h 4.5 km/h 39 % 0 mm
08:04 24.3 °C 9.5 °C 1015.1 hPa North 9.3 km/h 6.1 km/h 39 % 0 mm
08:09 24.4 °C 9.6 °C 1015.1 hPa North 9.3 km/h 6.6 km/h 39 % 0 mm
08:14 24.4 °C 9.6 °C 1015.5 hPa North 13 km/h 8.2 km/h 39 % 0 mm
08:19 24.5 °C 9.6 °C 1015.5 hPa North 9.3 km/h 6.4 km/h 39 % 0 mm
08:24 24.6 °C 9.3 °C 1015.5 hPa North 13 km/h 7.1 km/h 38 % 0 mm
08:29 24.8 °C 9.5 °C 1015.8 hPa NNW 11.1 km/h 8.9 km/h 38 % 0 mm
08:34 25 °C 9.7 °C 1015.5 hPa North 16.7 km/h 6.8 km/h 38 % 0 mm
08:39 25.2 °C 9.9 °C 1015.8 hPa NNW 11.1 km/h 8.2 km/h 38 % 0 mm
08:44 25.4 °C 9.7 °C 1015.8 hPa NNW 11.1 km/h 11.1 km/h 37 % 0 mm
08:49 25.6 °C 9.8 °C 1015.8 hPa NNW 11.1 km/h 6.9 km/h 37 % 0 mm
08:54 25.6 °C 9.8 °C 1015.8 hPa NNW 11.3 km/h 7.7 km/h 37 % 0 mm
08:59 25.5 °C 10.1 °C 1015.8 hPa NNW 13 km/h 6.1 km/h 38 % 0 mm
09:04 25.7 °C 10.3 °C 1015.8 hPa NNW 13 km/h 8.5 km/h 38 % 0 mm
09:09 25.8 °C 10.4 °C 1015.8 hPa NNW 13 km/h 7.1 km/h 38 % 0 mm
09:14 26.1 °C 10.2 °C 1015.8 hPa NNW 7.4 km/h 3.5 km/h 37 % 0 mm
09:19 26.5 °C 10.6 °C 1015.8 hPa NNW 9.7 km/h 5.6 km/h 37 % 0 mm
09:24 26.9 °C 10.6 °C 1015.8 hPa NNW 11.3 km/h 8.7 km/h 36 % 0 mm
09:29 27.1 °C 10.3 °C 1015.8 hPa NNW 7.4 km/h 7.2 km/h 35 % 0 mm
09:34 27 °C 10.2 °C 1015.8 hPa NNW 13 km/h 7.4 km/h 35 % 0 mm
09:39 27.1 °C 10.3 °C 1015.8 hPa North 9.3 km/h 3.9 km/h 35 % 0 mm
09:44 27.7 °C 10.4 °C 1015.8 hPa North 12.9 km/h 9.8 km/h 34 % 0 mm
09:49 28.3 °C 10 °C 1015.8 hPa NNE 24.1 km/h 18.5 km/h 32 % 0 mm
09:54 28.4 °C 10.1 °C 1015.8 hPa NNW 18.5 km/h 10.1 km/h 32 % 0 mm
09:59 28.4 °C 10.1 °C 1015.5 hPa North 18.5 km/h 8.4 km/h 32 % 0 mm
10:03 28.5 °C 10.2 °C 1015.5 hPa NNW 14.8 km/h 9.2 km/h 32 % 0 mm
10:14 29.5 °C 10.1 °C 1015.5 hPa NNE 18.5 km/h 6.9 km/h 30 % 0 mm
10:17 29.9 °C 10.5 °C 1015.8 hPa North 16.7 km/h 12.4 km/h 30 % 0 mm
10:24 30.6 °C 10 °C 1015.5 hPa North 16.7 km/h 16.7 km/h 28 % 0 mm
10:29 30.8 °C 9.6 °C 1015.5 hPa North 18.5 km/h 13.4 km/h 27 % 0 mm
10:34 30.5 °C 9.9 °C 1015.8 hPa NNW 17.7 km/h 12.7 km/h 28 % 0 mm
10:39 30.2 °C 9.7 °C 1015.8 hPa North 22.2 km/h 16.4 km/h 28 % 0 mm
10:44 30.1 °C 9.6 °C 1015.5 hPa NW 20.4 km/h 9.7 km/h 28 % 0 mm
10:49 30.1 °C 10.1 °C 1015.5 hPa North 17.7 km/h 12.2 km/h 29 % 0 mm
10:54 30.2 °C 9.7 °C 1015.5 hPa NNE 16.7 km/h 15 km/h 28 % 0 mm
10:59 30.4 °C 9.3 °C 1015.5 hPa NNE 20.4 km/h 12.7 km/h 27 % 0 mm
11:04 30.7 °C 9.5 °C 1015.5 hPa North 16.7 km/h 5.6 km/h 27 % 0 mm
11:09 30.8 °C 9.7 °C 1015.8 hPa NNE 16.1 km/h 9.5 km/h 27 % 0 mm
11:14 30.9 °C 9.2 °C 1015.8 hPa NNE 19.3 km/h 11.9 km/h 26 % 0 mm
11:19 31 °C 8.7 °C 1015.8 hPa North 20.4 km/h 15.6 km/h 25 % 0 mm
11:24 30.9 °C 9.2 °C 1015.8 hPa North 14.8 km/h 11.3 km/h 26 % 0 mm
11:29 30.9 °C 9.2 °C 1015.8 hPa NNW 20.4 km/h 12.4 km/h 26 % 0 mm
11:34 30.9 °C 9.2 °C 1015.8 hPa NNW 11.1 km/h 5.8 km/h 26 % 0 mm
11:38 30.9 °C 9.2 °C 1015.8 hPa North 11.1 km/h 5.8 km/h 26 % 0 mm
11:46 30.8 °C 9.1 °C 1015.8 hPa NNW 11.1 km/h 9.2 km/h 26 % 0 mm
12:24 31 °C 9.2 °C 1015.5 hPa North 11.1 km/h 8.7 km/h 26 % 0 mm
12:29 31.1 °C 9.3 °C 1015.5 hPa NNE 11.1 km/h 8.9 km/h 26 % 0 mm
12:34 31.1 °C 9.3 °C 1015.5 hPa NNE 9.3 km/h 8.5 km/h 26 % 0 mm
12:38 31.1 °C 9.3 °C 1015.5 hPa NNE 13 km/h 10.5 km/h 26 % 0 mm
12:44 31.1 °C 9.3 °C 1015.5 hPa NNE 13 km/h 13 km/h 26 % 0 mm
12:47 31.1 °C 9.3 °C 1015.1 hPa NNE 11.1 km/h 6.6 km/h 26 % 0 mm
13:04 31.2 °C 9.4 °C 1014.8 hPa NNE 11.1 km/h 9.5 km/h 26 % 0 mm
13:09 31.3 °C 8.9 °C 1014.8 hPa NNE 13 km/h 8.5 km/h 25 % 0 mm
13:14 31.4 °C 8.4 °C 1014.4 hPa North 14.8 km/h 11.3 km/h 24 % 0 mm
13:19 31.6 °C 9.2 °C 1014.1 hPa North 11.1 km/h 6.9 km/h 25 % 0 mm
13:22 31.8 °C 9.3 °C 1014.1 hPa North 9.3 km/h 6.1 km/h 25 % 0 mm
13:29 32.1 °C 9 °C 1014.1 hPa North 16.1 km/h 12.7 km/h 24 % 0 mm
13:34 32.2 °C 8.4 °C 1013.8 hPa North 16.7 km/h 9.5 km/h 23 % 0 mm
13:39 32.3 °C 8.6 °C 1014.1 hPa NNE 20.9 km/h 9.5 km/h 23 % 0 mm
13:44 32.5 °C 8.7 °C 1014.1 hPa North 27.8 km/h 14.5 km/h 23 % 0 mm
13:49 32.7 °C 8.8 °C 1014.1 hPa North 18.5 km/h 11.9 km/h 23 % 0 mm
13:54 32.8 °C 8.3 °C 1014.1 hPa NNE 25.9 km/h 16.7 km/h 22 % 0 mm
13:59 32.9 °C 8.4 °C 1013.8 hPa North 20.4 km/h 11.7 km/h 22 % 0 mm
14:04 33.1 °C 8.6 °C 1013.8 hPa North 13 km/h 9.8 km/h 22 % 0 mm
14:09 33.3 °C 8 °C 1013.8 hPa North 14.8 km/h 10.9 km/h 21 % 0 mm
14:13 33.4 °C 8.8 °C 1013.8 hPa North 14.5 km/h 14.5 km/h 22 % 0 mm
14:22 33.6 °C 8.3 °C 1013.8 hPa North 20.4 km/h 9.2 km/h 21 % 0 mm
15:09 33.9 °C 7.8 °C 1013.4 hPa NW 27.8 km/h 8.4 km/h 20 % 0 mm
15:14 33.9 °C 7.8 °C 1013.4 hPa NNW 13 km/h 8.5 km/h 20 % 0 mm
15:19 33.9 °C 7 °C 1013.4 hPa NNW 14.8 km/h 10 km/h 19 % 0 mm
15:24 33.8 °C 7 °C 1013.4 hPa NNW 11.1 km/h 4.7 km/h 19 % 0 mm
15:29 33.7 °C 7.7 °C 1013.4 hPa NW 9.3 km/h 8.5 km/h 20 % 0 mm
15:34 33.6 °C 6.8 °C 1013.4 hPa NW 9.3 km/h 5.8 km/h 19 % 0 mm
15:39 33.6 °C 7.6 °C 1013.4 hPa NW 5.6 km/h 6.9 km/h 20 % 0 mm
15:44 33.6 °C 7.6 °C 1013.4 hPa NW 9.3 km/h 4.7 km/h 20 % 0 mm
15:49 33.6 °C 8.3 °C 1013.1 hPa NW 5.6 km/h 3.2 km/h 21 % 0 mm
15:54 33.6 °C 7.6 °C 1013.1 hPa NW 3.7 km/h 2.3 km/h 20 % 0 mm
15:59 33.7 °C 6.9 °C 1013.1 hPa NW 5.6 km/h 4.5 km/h 19 % 0 mm
16:04 33.9 °C 7.8 °C 1013.1 hPa NW 6.4 km/h 4.5 km/h 20 % 0 mm
16:09 33.9 °C 7.1 °C 1013.1 hPa WNW 16.1 km/h 10.6 km/h 19 % 0 mm
16:14 33.9 °C 7.1 °C 1013.4 hPa West 16.7 km/h 14.6 km/h 19 % 0 mm
16:19 33.7 °C 6.9 °C 1013.4 hPa West 22.2 km/h 11.6 km/h 19 % 0 mm
16:24 33.5 °C 6.7 °C 1013.4 hPa WSW 19.3 km/h 15.4 km/h 19 % 0 mm
16:29 33.3 °C 6.5 °C 1013.4 hPa WSW 22.2 km/h 13.7 km/h 19 % 0 mm
16:34 32.5 °C 8.1 °C 1013.8 hPa North 35.2 km/h 27.2 km/h 22 % 0 mm
16:39 31.8 °C 8.1 °C 1013.8 hPa WNW 25.7 km/h 17.9 km/h 23 % 0 mm
16:44 31.8 °C 7.4 °C 1013.8 hPa WNW 22.2 km/h 15.1 km/h 22 % 0 mm
16:49 31.7 °C 8 °C 1013.8 hPa West 22.2 km/h 14.5 km/h 23 % 0 mm
16:59 31.3 °C 8.3 °C 1013.4 hPa WNW 25.9 km/h 14.2 km/h 24 % 0 mm
17:04 31.3 °C 8.3 °C 1013.4 hPa NW 18.5 km/h 8.7 km/h 24 % 0 mm
17:09 31.3 °C 8.3 °C 1013.4 hPa NW 16.1 km/h 9.3 km/h 24 % 0 mm
17:14 31.4 °C 8.4 °C 1013.1 hPa NW 11.1 km/h 9.3 km/h 24 % 0 mm
17:19 31.4 °C 8.4 °C 1013.1 hPa NW 14.8 km/h 7.6 km/h 24 % 0 mm
17:24 31.3 °C 8.3 °C 1013.1 hPa NW 7.4 km/h 4.7 km/h 24 % 0 mm
17:29 31.3 °C 8.9 °C 1013.1 hPa NW 11.1 km/h 5.1 km/h 25 % 0 mm
17:34 31.4 °C 9 °C 1013.1 hPa NW 7.4 km/h 2.9 km/h 25 % 0 mm
17:39 31.4 °C 8.4 °C 1013.1 hPa NW 5.6 km/h 4 km/h 24 % 0 mm
17:44 31.6 °C 9.1 °C 1013.1 hPa NW 6.4 km/h 5 km/h 25 % 0 mm
17:49 31.6 °C 9.2 °C 1012.8 hPa NW 5.6 km/h 3.7 km/h 25 % 0 mm
17:54 31.6 °C 8.6 °C 1013.1 hPa NW 7.4 km/h 4.8 km/h 24 % 0 mm
17:59 31.7 °C 8.6 °C 1012.8 hPa NW 3.2 km/h 1.1 km/h 24 % 0 mm
18:04 31.9 °C 8.2 °C 1012.8 hPa NW 5.6 km/h 3.9 km/h 23 % 0 mm
18:09 32.1 °C 8.4 °C 1012.8 hPa NW 5.6 km/h 3.9 km/h 23 % 0 mm
18:14 32.2 °C 8.4 °C 1012.8 hPa NW 7.4 km/h 4.7 km/h 23 % 0 mm
18:19 32.2 °C 8.4 °C 1012.8 hPa NW 9.3 km/h 6.3 km/h 23 % 0 mm
18:24 32.4 °C 8.6 °C 1012.8 hPa NW 7.4 km/h 6.1 km/h 23 % 0 mm
18:29 32.6 °C 8.8 °C 1012.8 hPa NW 7.4 km/h 4.3 km/h 23 % 0 mm
18:34 32.7 °C 8.2 °C 1012.8 hPa North 14.5 km/h 11.1 km/h 22 % 0 mm
18:39 32.6 °C 8.1 °C 1012.8 hPa WNW 14.8 km/h 8.7 km/h 22 % 0 mm
18:44 32.7 °C 8.2 °C 1012.8 hPa WNW 5.6 km/h 2.7 km/h 22 % 0 mm
18:49 32.6 °C 8.1 °C 1012.8 hPa NW 14.8 km/h 9.3 km/h 22 % 0 mm
18:54 32.6 °C 8.1 °C 1012.8 hPa NW 5.6 km/h 2.7 km/h 22 % 0 mm
18:59 32.6 °C 8.1 °C 1012.8 hPa NW 5.6 km/h 2.3 km/h 22 % 0 mm
19:04 32.4 °C 8.7 °C 1012.8 hPa NW 5.6 km/h 2.9 km/h 23 % 0 mm
19:09 32.2 °C 8.4 °C 1012.8 hPa North 4.8 km/h 1.9 km/h 23 % 0 mm
19:14 31.2 °C 14.8 °C 1013.4 hPa South 33.3 km/h 19.2 km/h 37 % 0 mm
19:19 27.8 °C 14.8 °C 1013.4 hPa SSW 31.5 km/h 24.3 km/h 45 % 0 mm
19:24 26.2 °C 15.3 °C 1013.4 hPa South 35.2 km/h 21.4 km/h 51 % 0 mm
19:29 25.7 °C 15.4 °C 1013.8 hPa SSW 18.5 km/h 15.4 km/h 53 % 0 mm
19:34 25.3 °C 15.3 °C 1014.1 hPa South 29 km/h 15.8 km/h 54 % 0 mm
19:39 24.8 °C 15.4 °C 1014.1 hPa South 27.8 km/h 18.3 km/h 56 % 0 mm
19:44 24.4 °C 15.6 °C 1014.1 hPa South 31.5 km/h 13.7 km/h 58 % 0 mm
19:49 23.9 °C 15.7 °C 1014.4 hPa SSW 25.9 km/h 16.7 km/h 60 % 0 mm
19:54 23.3 °C 15.7 °C 1014.8 hPa SW 16.7 km/h 11.1 km/h 62 % 0 mm
19:59 22.9 °C 15.7 °C 1014.8 hPa South 20.4 km/h 7.7 km/h 64 % 0 mm
20:04 22.5 °C 15.6 °C 1015.1 hPa SW 20.4 km/h 11.9 km/h 65 % 0 mm
20:09 22.1 °C 15.7 °C 1015.5 hPa SSW 25.9 km/h 18.7 km/h 67 % 0 mm
20:14 21.8 °C 15.6 °C 1016.1 hPa SSW 22.2 km/h 12.4 km/h 68 % 0 mm
20:19 21.4 °C 15.4 °C 1015.8 hPa South 25.9 km/h 14 km/h 69 % 0 mm
20:24 21.1 °C 15.4 °C 1015.8 hPa SSW 20.4 km/h 14.5 km/h 70 % 0 mm
20:29 20.8 °C 15.3 °C 1015.5 hPa SSW 18.5 km/h 16.1 km/h 71 % 0 mm
20:34 20.6 °C 15.2 °C 1015.5 hPa South 8 km/h 7.7 km/h 71 % 0 mm
20:39 20.4 °C 15 °C 1015.1 hPa SSE 18.5 km/h 10.6 km/h 71 % 0 mm
20:44 20.3 °C 15.1 °C 1015.1 hPa SSE 20.4 km/h 10.5 km/h 72 % 0 mm
20:49 20.1 °C 14.9 °C 1015.8 hPa SSE 14.8 km/h 11.1 km/h 72 % 0 mm
20:54 19.9 °C 14.9 °C 1015.8 hPa South 18.5 km/h 7.2 km/h 73 % 0 mm
20:59 19.8 °C 15.1 °C 1015.8 hPa South 16.7 km/h 9.7 km/h 74 % 0 mm
21:04 19.7 °C 14.9 °C 1015.8 hPa SSW 16.7 km/h 10.5 km/h 74 % 0 mm
21:09 19.6 °C 15 °C 1015.8 hPa South 20.4 km/h 9.2 km/h 75 % 0 mm
21:14 19.4 °C 14.8 °C 1016.5 hPa South 20.4 km/h 16.4 km/h 75 % 0 mm
21:19 19.2 °C 14.8 °C 1016.8 hPa SSW 22.2 km/h 12.4 km/h 76 % 0 mm
21:24 18.8 °C 14.7 °C 1016.8 hPa SSW 27.8 km/h 16.3 km/h 77 % 0 mm
21:29 18.7 °C 14.6 °C 1016.5 hPa SSW 22.2 km/h 11.1 km/h 77 % 0 mm
21:34 18.6 °C 14.7 °C 1016.1 hPa South 18.5 km/h 11.7 km/h 78 % 0 mm
21:39 18.4 °C 14.7 °C 1016.5 hPa South 20.4 km/h 14.5 km/h 79 % 0 mm
21:44 18.3 °C 14.6 °C 1016.8 hPa South 18.5 km/h 12.7 km/h 79 % 0 mm
21:49 18.2 °C 14.5 °C 1017.2 hPa SSW 18.5 km/h 12.9 km/h 79 % 0 mm
21:54 18.2 °C 14.7 °C 1017.5 hPa South 12.9 km/h 13 km/h 80 % 0 mm
21:59 18.1 °C 14.6 °C 1017.5 hPa South 17.7 km/h 8.9 km/h 80 % 0 mm
22:04 17.9 °C 14.4 °C 1017.5 hPa South 20.4 km/h 11.1 km/h 80 % 0 mm
22:09 17.8 °C 14.5 °C 1017.2 hPa South 22.2 km/h 14.8 km/h 81 % 0 mm
22:14 17.7 °C 14.4 °C 1017.2 hPa South 14.8 km/h 11.4 km/h 81 % 0 mm
22:19 17.7 °C 14.4 °C 1016.8 hPa South 9.7 km/h 8.7 km/h 81 % 0 mm
22:24 17.7 °C 14.4 °C 1016.5 hPa SSE 18.5 km/h 10.5 km/h 81 % 0 mm
22:29 17.6 °C 14.5 °C 1017.2 hPa SSW 22.2 km/h 15 km/h 82 % 0 mm
22:34 17.5 °C 14.4 °C 1017.8 hPa WSW 18.5 km/h 9.7 km/h 82 % 0 mm
22:39 17.4 °C 14.3 °C 1017.5 hPa SSW 19.3 km/h 14.3 km/h 82 % 0 mm
22:44 17.3 °C 14.2 °C 1017.2 hPa SSW 16.7 km/h 12.7 km/h 82 % 0 mm
22:49 17.2 °C 14.1 °C 1017.2 hPa South 18.5 km/h 9.5 km/h 82 % 0 mm
22:54 17.2 °C 14.3 °C 1017.2 hPa South 13 km/h 8.7 km/h 83 % 0 mm
22:59 17.1 °C 14.2 °C 1017.2 hPa SSW 16.7 km/h 9.8 km/h 83 % 0 mm
23:04 17.1 °C 14.2 °C 1017.2 hPa South 11.1 km/h 9.7 km/h 83 % 0 mm
23:09 17 °C 14.3 °C 1017.2 hPa South 11.1 km/h 6.1 km/h 84 % 0 mm
23:14 16.9 °C 14.2 °C 1017.2 hPa South 13 km/h 9.2 km/h 84 % 0 mm
23:19 16.9 °C 14.2 °C 1017.2 hPa South 22.2 km/h 10.8 km/h 84 % 0 mm
23:24 16.8 °C 14.2 °C 1016.8 hPa South 20.4 km/h 15 km/h 85 % 0 mm
23:29 16.7 °C 14.1 °C 1017.2 hPa SSW 22.2 km/h 9.8 km/h 85 % 0 mm
23:34 16.6 °C 14.1 °C 1017.2 hPa South 12.9 km/h 10.3 km/h 85 % 0 mm
23:39 16.6 °C 14.2 °C 1017.2 hPa South 11.1 km/h 6.4 km/h 86 % 0 mm
23:44 16.5 °C 14.2 °C 1016.8 hPa South 20.4 km/h 12.1 km/h 86 % 0 mm
23:49 16.4 °C 14.1 °C 1016.8 hPa South 16.7 km/h 12.6 km/h 86 % 0 mm
23:54 16.3 °C 13.9 °C 1016.8 hPa North 16.7 km/h 13.2 km/h 86 % 0 mm
23:59 16.2 °C 14.1 °C 1016.8 hPa South 14.8 km/h 8.7 km/h 87 % 0 mm
Ararat Weather
Compliments of Weather Underground - 2.25 mb
Click here to send mail.


ABOUT

Live weather data from Ararat, Victoria, Australia, 3377
Data uploaded from Cumulus every 5 minutes to Weather Underground.
This site then downloads the raw data for formatting and display.
Metric and imperial data can be displayed. Graphs and historical data available.
Includes Sun and Moon times and rain image live from BOM.

Check out Ararat Weather on Facebook, Twitter and Google +

Help support ongoing costs by checking out the ads





Follow @AraratWeather